contact:dominique.lefevre@mio.osupytheas.fr, maurice.libes@osupytheas.fr, didier.mallarino@osupytheas.fr
Project:EMSO http://www.emso-fr.org/EMSO-France
Depth: 2436.0 m
Title:EMSO Ligure Ouest : Data MII capteur MICROCAT
DateTime_Computer,Latitude,Longitude,Temperature,Conductivity,Pressure,DateTime_Instrument
DateTime_Computer,Latitude,Longitude,degC,S m-1,dbar,DateTime_Instrument
2021-08-11T00:03:00Z,42.805,6.029,13.2987,4.60006,2470.497,2021-8-11T02:04:18Z
2021-08-11T00:06:03Z,42.805,6.029,13.2990,4.60005,2470.483,2021-8-11T02:07:21Z
2021-08-11T00:09:06Z,42.805,6.029,13.2991,4.60003,2470.446,2021-8-11T02:10:24Z
2021-08-11T00:12:09Z,42.805,6.029,13.2989,4.60009,2470.45,2021-8-11T02:13:27Z
2021-08-11T00:15:12Z,42.805,6.029,13.2988,4.60008,2470.474,2021-8-11T02:16:30Z
2021-08-11T00:18:15Z,42.805,6.029,13.2985,4.60007,2470.46,2021-8-11T02:19:33Z
2021-08-11T00:21:18Z,42.805,6.029,13.2990,4.60003,2470.483,2021-8-11T02:22:37Z
2021-08-11T00:24:22Z,42.805,6.029,13.2989,4.60011,2470.45,2021-8-11T02:25:40Z
2021-08-11T00:27:25Z,42.805,6.029,13.2990,4.60004,2470.46,2021-8-11T02:28:43Z
2021-08-11T00:30:28Z,42.805,6.029,13.2990,4.60009,2470.437,2021-8-11T02:31:46Z
2021-08-11T00:33:31Z,42.805,6.029,13.2990,4.60003,2470.483,2021-8-11T02:34:49Z
2021-08-11T00:36:34Z,42.805,6.029,13.2989,4.60009,2470.474,2021-8-11T02:37:52Z
2021-08-11T00:39:37Z,42.805,6.029,13.2989,4.60003,2470.46,2021-8-11T02:40:55Z
2021-08-11T00:42:40Z,42.805,6.029,13.2988,4.60005,2470.437,2021-8-11T02:43:58Z
2021-08-11T00:45:43Z,42.805,6.029,13.2986,4.60006,2470.437,2021-8-11T02:47:02Z
2021-08-11T00:48:47Z,42.805,6.029,13.2990,4.60002,2470.437,2021-8-11T02:50:05Z
2021-08-11T00:51:50Z,42.805,6.029,13.2988,4.60013,2470.437,2021-8-11T02:53:08Z
2021-08-11T00:54:53Z,42.805,6.029,13.2990,4.60014,2470.46,2021-8-11T02:56:11Z
2021-08-11T00:57:56Z,42.805,6.029,13.2989,4.60002,2470.427,2021-8-11T02:59:14Z
2021-08-11T01:00:59Z,42.805,6.029,13.2990,4.60003,2470.413,2021-8-11T03:02:17Z
2021-08-11T01:04:02Z,42.805,6.029,13.2986,4.60003,2470.427,2021-8-11T03:05:20Z
2021-08-11T01:07:05Z,42.805,6.029,13.2993,4.60006,2470.427,2021-8-11T03:08:23Z
2021-08-11T01:10:08Z,42.805,6.029,13.2991,4.60004,2470.413,2021-8-11T03:11:27Z
2021-08-11T01:13:12Z,42.805,6.029,13.2991,4.60011,2470.413,2021-8-11T03:14:30Z
2021-08-11T01:16:15Z,42.805,6.029,13.2986,4.60002,2470.38,2021-8-11T03:17:33Z
2021-08-11T01:19:18Z,42.805,6.029,13.2993,4.60003,2470.413,2021-8-11T03:20:36Z
2021-08-11T01:22:21Z,42.805,6.029,13.2990,4.60006,2470.437,2021-8-11T03:23:39Z
2021-08-11T01:25:24Z,42.805,6.029,13.2990,4.60019,2470.404,2021-8-11T03:26:42Z
2021-08-11T01:28:27Z,42.805,6.029,13.2990,4.60008,2470.413,2021-8-11T03:29:45Z
2021-08-11T01:31:30Z,42.805,6.029,13.2985,4.60008,2470.437,2021-8-11T03:32:48Z
2021-08-11T01:34:33Z,42.805,6.029,13.2987,4.60001,2470.39,2021-8-11T03:35:52Z
2021-08-11T01:37:37Z,42.805,6.029,13.2990,4.60002,2470.38,2021-8-11T03:38:55Z
2021-08-11T01:40:40Z,42.805,6.029,13.2990,4.60008,2470.413,2021-8-11T03:41:58Z
2021-08-11T01:43:43Z,42.805,6.029,13.2989,4.60005,2470.404,2021-8-11T03:45:01Z
2021-08-11T01:46:46Z,42.805,6.029,13.2987,4.60007,2470.38,2021-8-11T03:48:04Z
2021-08-11T01:49:49Z,42.805,6.029,13.2987,4.60005,2470.413,2021-8-11T03:51:07Z
2021-08-11T01:52:52Z,42.805,6.029,13.2989,4.60014,2470.353,2021-8-11T03:54:10Z
2021-08-11T01:55:55Z,42.805,6.029,13.2989,4.60009,2470.404,2021-8-11T03:57:13Z
2021-08-11T01:58:58Z,42.805,6.029,13.2985,4.60006,2470.39,2021-8-11T04:00:17Z
2021-08-11T02:02:02Z,42.805,6.029,13.2988,4.60008,2470.366,2021-8-11T04:03:20Z
2021-08-11T02:05:05Z,42.805,6.029,13.2990,4.60006,2470.366,2021-8-11T04:06:23Z
2021-08-11T02:08:08Z,42.805,6.029,13.2988,4.60006,2470.38,2021-8-11T04:09:26Z
2021-08-11T02:11:11Z,42.805,6.029,13.2985,4.60006,2470.39,2021-8-11T04:12:29Z
2021-08-11T02:14:14Z,42.805,6.029,13.2988,4.60008,2470.366,2021-8-11T04:15:32Z
2021-08-11T02:17:17Z,42.805,6.029,13.2990,4.60003,2470.343,2021-8-11T04:18:35Z
2021-08-11T02:20:20Z,42.805,6.029,13.2990,4.60006,2470.343,2021-8-11T04:21:38Z
2021-08-11T02:23:23Z,42.805,6.029,13.2992,4.60009,2470.357,2021-8-11T04:24:42Z
2021-08-11T02:26:26Z,42.805,6.029,13.2991,4.60003,2470.343,2021-8-11T04:27:45Z
2021-08-11T02:29:30Z,42.805,6.029,13.2990,4.60009,2470.343,2021-8-11T04:30:48Z
2021-08-11T02:32:33Z,42.805,6.029,13.2989,4.60003,2470.366,2021-8-11T04:33:51Z
2021-08-11T02:35:36Z,42.805,6.029,13.2986,4.60001,2470.366,2021-8-11T04:36:54Z
2021-08-11T02:38:39Z,42.805,6.029,13.2990,4.60002,2470.33,2021-8-11T04:39:57Z
2021-08-11T02:41:42Z,42.805,6.029,13.2991,4.60003,2470.366,2021-8-11T04:43:00Z
2021-08-11T02:44:45Z,42.805,6.029,13.2990,4.60004,2470.357,2021-8-11T04:46:03Z
2021-08-11T02:47:48Z,42.805,6.029,13.2990,4.60004,2470.366,2021-8-11T04:49:07Z
2021-08-11T02:50:51Z,42.805,6.029,13.2992,4.60011,2470.343,2021-8-11T04:52:10Z
2021-08-11T02:53:55Z,42.805,6.029,13.2988,4.60009,2470.334,2021-8-11T04:55:13Z
2021-08-11T02:56:58Z,42.805,6.029,13.2989,4.60006,2470.343,2021-8-11T04:58:16Z
2021-08-11T03:00:01Z,42.805,6.029,13.2989,4.60005,2470.32,2021-8-11T05:01:19Z
2021-08-11T03:03:04Z,42.805,6.029,13.2987,4.60000,2470.32,2021-8-11T05:04:22Z
2021-08-11T03:06:07Z,42.805,6.029,13.2991,4.60000,2470.32,2021-8-11T05:07:25Z
2021-08-11T03:09:10Z,42.805,6.029,13.2987,4.60003,2470.32,2021-8-11T05:10:28Z
2021-08-11T03:12:13Z,42.805,6.029,13.2990,4.60009,2470.334,2021-8-11T05:13:31Z
2021-08-11T03:15:16Z,42.805,6.029,13.2986,4.60003,2470.32,2021-8-11T05:16:35Z
2021-08-11T03:18:20Z,42.805,6.029,13.2989,4.60003,2470.343,2021-8-11T05:19:38Z
2021-08-11T03:21:23Z,42.805,6.029,13.2990,4.60002,2470.32,2021-8-11T05:22:41Z
2021-08-11T03:24:26Z,42.805,6.029,13.2991,4.60002,2470.32,2021-8-11T05:25:44Z
2021-08-11T03:27:29Z,42.805,6.029,13.2990,4.60001,2470.32,2021-8-11T05:28:47Z
2021-08-11T03:30:32Z,42.805,6.029,13.2990,4.60009,2470.334,2021-8-11T05:31:50Z
2021-08-11T03:33:35Z,42.805,6.029,13.2992,4.60005,2470.357,2021-8-11T05:34:53Z
2021-08-11T03:36:38Z,42.805,6.029,13.2990,4.60003,2470.32,2021-8-11T05:37:56Z
2021-08-11T03:39:41Z,42.805,6.029,13.2988,4.60005,2470.343,2021-8-11T05:41:00Z
2021-08-11T03:42:45Z,42.805,6.029,13.2988,4.60008,2470.32,2021-8-11T05:44:03Z
2021-08-11T03:45:48Z,42.805,6.029,13.2991,4.60008,2470.357,2021-8-11T05:47:06Z
2021-08-11T03:48:51Z,42.805,6.029,13.2990,4.60008,2470.334,2021-8-11T05:50:09Z
2021-08-11T03:51:54Z,42.805,6.029,13.2987,4.60002,2470.357,2021-8-11T05:53:12Z
2021-08-11T03:54:57Z,42.805,6.029,13.2990,4.60006,2470.343,2021-8-11T05:56:15Z
2021-08-11T03:58:00Z,42.805,6.029,13.2990,4.60003,2470.357,2021-8-11T05:59:18Z
2021-08-11T04:01:03Z,42.805,6.029,13.2990,4.60007,2470.32,2021-8-11T06:02:21Z
2021-08-11T04:04:06Z,42.805,6.029,13.2989,4.60005,2470.32,2021-8-11T06:05:25Z
2021-08-11T04:07:10Z,42.805,6.029,13.2988,4.60004,2470.343,2021-8-11T06:08:28Z
2021-08-11T04:10:13Z,42.805,6.029,13.2991,4.60005,2470.357,2021-8-11T06:11:31Z
2021-08-11T04:13:16Z,42.805,6.029,13.2985,4.60003,2470.32,2021-8-11T06:14:34Z
2021-08-11T04:16:19Z,42.805,6.029,13.2990,4.60006,2470.297,2021-8-11T06:17:37Z
2021-08-11T04:19:22Z,42.805,6.029,13.2991,4.60007,2470.343,2021-8-11T06:20:40Z
2021-08-11T04:22:25Z,42.805,6.029,13.2986,4.60004,2470.334,2021-8-11T06:23:43Z
2021-08-11T04:25:28Z,42.805,6.029,13.2989,4.60003,2470.371,2021-8-11T06:26:46Z
2021-08-11T04:28:31Z,42.805,6.029,13.2990,4.60003,2470.343,2021-8-11T06:29:49Z
2021-08-11T04:31:34Z,42.805,6.029,13.2990,4.60003,2470.343,2021-8-11T06:32:53Z
2021-08-11T04:34:38Z,42.805,6.029,13.2986,4.60006,2470.343,2021-8-11T06:35:56Z
2021-08-11T04:37:41Z,42.805,6.029,13.2990,4.60005,2470.357,2021-8-11T06:38:59Z
2021-08-11T04:40:44Z,42.805,6.029,13.2990,4.60001,2470.343,2021-8-11T06:42:02Z
2021-08-11T04:43:47Z,42.805,6.029,13.2990,4.60004,2470.366,2021-8-11T06:45:05Z
2021-08-11T04:46:50Z,42.805,6.029,13.2991,4.60006,2470.343,2021-8-11T06:48:08Z
2021-08-11T04:49:53Z,42.805,6.029,13.2990,4.60002,2470.357,2021-8-11T06:51:11Z
2021-08-11T04:52:56Z,42.805,6.029,13.2989,4.60003,2470.38,2021-8-11T06:54:14Z
2021-08-11T04:55:59Z,42.805,6.029,13.2989,4.60003,2470.343,2021-8-11T06:57:18Z
2021-08-11T04:59:03Z,42.805,6.029,13.2988,4.60004,2470.32,2021-8-11T07:00:21Z
2021-08-11T05:02:06Z,42.805,6.029,13.2986,4.60004,2470.343,2021-8-11T07:03:24Z
2021-08-11T05:05:09Z,42.805,6.029,13.2989,4.60004,2470.353,2021-8-11T07:06:27Z
2021-08-11T05:08:12Z,42.805,6.029,13.2990,4.60004,2470.343,2021-8-11T07:09:30Z
2021-08-11T05:11:15Z,42.805,6.029,13.2986,4.60006,2470.39,2021-8-11T07:12:33Z
2021-08-11T05:14:18Z,42.805,6.029,13.2990,4.60004,2470.366,2021-8-11T07:15:36Z
2021-08-11T05:17:21Z,42.805,6.029,13.2985,4.60005,2470.357,2021-8-11T07:18:39Z
2021-08-11T05:20:24Z,42.805,6.029,13.2991,4.60005,2470.343,2021-8-11T07:21:43Z
2021-08-11T05:23:28Z,42.805,6.029,13.2990,4.60005,2470.38,2021-8-11T07:24:46Z
2021-08-11T05:26:31Z,42.805,6.029,13.2990,4.60006,2470.366,2021-8-11T07:27:49Z
2021-08-11T05:29:34Z,42.805,6.029,13.2992,4.60004,2470.39,2021-8-11T07:30:52Z
2021-08-11T05:32:37Z,42.805,6.029,13.2987,4.60003,2470.366,2021-8-11T07:33:55Z
2021-08-11T05:35:40Z,42.805,6.029,13.2991,4.60009,2470.376,2021-8-11T07:36:58Z
2021-08-11T05:38:43Z,42.805,6.029,13.2990,4.60006,2470.404,2021-8-11T07:40:01Z
2021-08-11T05:41:46Z,42.805,6.029,13.2989,4.60003,2470.413,2021-8-11T07:43:04Z
2021-08-11T05:44:49Z,42.805,6.029,13.2990,4.60006,2470.366,2021-8-11T07:46:08Z
2021-08-11T05:47:53Z,42.805,6.029,13.2990,4.60006,2470.38,2021-8-11T07:49:11Z
2021-08-11T05:50:56Z,42.805,6.029,13.2990,4.60005,2470.39,2021-8-11T07:52:14Z
2021-08-11T05:53:59Z,42.805,6.029,13.2988,4.60002,2470.427,2021-8-11T07:55:17Z
2021-08-11T05:57:02Z,42.805,6.029,13.2991,4.60001,2470.39,2021-8-11T07:58:20Z
2021-08-11T06:00:05Z,42.805,6.029,13.2989,4.60005,2470.427,2021-8-11T08:01:23Z
2021-08-11T06:03:08Z,42.805,6.029,13.2990,4.60003,2470.404,2021-8-11T08:04:26Z
2021-08-11T06:06:11Z,42.805,6.029,13.2986,4.60003,2470.413,2021-8-11T08:07:29Z
2021-08-11T06:09:14Z,42.805,6.029,13.2989,4.60001,2470.427,2021-8-11T08:10:33Z
2021-08-11T06:12:18Z,42.805,6.029,13.2988,4.60004,2470.413,2021-8-11T08:13:36Z
2021-08-11T06:15:21Z,42.805,6.029,13.2989,4.60005,2470.427,2021-8-11T08:16:39Z
2021-08-11T06:18:24Z,42.805,6.029,13.2991,4.60004,2470.39,2021-8-11T08:19:42Z
2021-08-11T06:21:27Z,42.805,6.029,13.2991,4.60006,2470.427,2021-8-11T08:22:45Z
2021-08-11T06:24:30Z,42.805,6.029,13.2988,4.60002,2470.45,2021-8-11T08:25:48Z
2021-08-11T06:27:33Z,42.805,6.029,13.2990,4.60005,2470.437,2021-8-11T08:28:51Z
2021-08-11T06:30:36Z,42.805,6.029,13.2991,4.60002,2470.427,2021-8-11T08:31:54Z
2021-08-11T06:33:39Z,42.805,6.029,13.2991,4.60002,2470.437,2021-8-11T08:34:58Z
2021-08-11T06:36:43Z,42.805,6.029,13.2986,4.60003,2470.437,2021-8-11T08:38:01Z
2021-08-11T06:39:46Z,42.805,6.029,13.2986,4.60003,2470.437,2021-8-11T08:41:04Z
2021-08-11T06:42:49Z,42.805,6.029,13.2989,4.60002,2470.46,2021-8-11T08:44:07Z
2021-08-11T06:45:52Z,42.805,6.029,13.2986,4.60006,2470.437,2021-8-11T08:47:10Z
2021-08-11T06:48:55Z,42.805,6.029,13.2990,4.60007,2470.427,2021-8-11T08:50:13Z
2021-08-11T06:51:58Z,42.805,6.029,13.2990,4.60006,2470.427,2021-8-11T08:53:16Z
2021-08-11T06:55:01Z,42.805,6.029,13.2990,4.60001,2470.437,2021-8-11T08:56:19Z
2021-08-11T06:58:04Z,42.805,6.029,13.2988,4.60003,2470.423,2021-8-11T08:59:23Z
2021-08-11T07:01:08Z,42.805,6.029,13.2992,4.60002,2470.413,2021-8-11T09:02:26Z
2021-08-11T07:04:11Z,42.805,6.029,13.2993,4.60008,2470.46,2021-8-11T09:05:29Z
2021-08-11T07:07:14Z,42.805,6.029,13.2991,4.60004,2470.437,2021-8-11T09:08:32Z
2021-08-11T07:10:17Z,42.805,6.029,13.2990,4.60006,2470.46,2021-8-11T09:11:35Z
2021-08-11T07:13:20Z,42.805,6.029,13.2989,4.60003,2470.413,2021-8-11T09:14:38Z
2021-08-11T07:16:23Z,42.805,6.029,13.2990,4.60001,2470.46,2021-8-11T09:17:41Z
2021-08-11T07:19:26Z,42.805,6.029,13.2990,4.60000,2470.483,2021-8-11T09:20:44Z
2021-08-11T07:22:29Z,42.805,6.029,13.2989,4.60005,2470.46,2021-8-11T09:23:48Z
2021-08-11T07:25:33Z,42.805,6.029,13.2990,4.60000,2470.497,2021-8-11T09:26:51Z
2021-08-11T07:28:36Z,42.805,6.029,13.2991,4.60003,2470.46,2021-8-11T09:29:54Z
2021-08-11T07:31:39Z,42.805,6.029,13.2988,4.60006,2470.437,2021-8-11T09:32:57Z
2021-08-11T07:34:42Z,42.805,6.029,13.2991,4.60001,2470.52,2021-8-11T09:36:00Z
2021-08-11T07:37:45Z,42.805,6.029,13.2989,4.60003,2470.52,2021-8-11T09:39:03Z
2021-08-11T07:40:48Z,42.805,6.029,13.2992,4.60003,2470.483,2021-8-11T09:42:06Z
2021-08-11T07:43:51Z,42.805,6.029,13.2990,4.60002,2470.483,2021-8-11T09:45:09Z
2021-08-11T07:46:54Z,42.805,6.029,13.2989,4.59999,2470.483,2021-8-11T09:48:13Z
2021-08-11T07:49:57Z,42.805,6.029,13.2989,4.60000,2470.52,2021-8-11T09:51:16Z
2021-08-11T07:53:01Z,42.805,6.029,13.2991,4.60002,2470.483,2021-8-11T09:54:19Z
2021-08-11T07:56:04Z,42.805,6.029,13.2992,4.60000,2470.483,2021-8-11T09:57:22Z
2021-08-11T07:59:07Z,42.805,6.029,13.2986,4.60001,2470.483,2021-8-11T10:00:25Z
2021-08-11T08:02:10Z,42.805,6.029,13.2991,4.60003,2470.507,2021-8-11T10:03:28Z
2021-08-11T08:05:13Z,42.805,6.029,13.2990,4.60001,2470.52,2021-8-11T10:06:31Z
2021-08-11T08:08:16Z,42.805,6.029,13.2988,4.60008,2470.483,2021-8-11T10:09:34Z
2021-08-11T08:11:19Z,42.805,6.029,13.2989,4.60000,2470.497,2021-8-11T10:12:38Z
2021-08-11T08:14:23Z,42.805,6.029,13.2990,4.60003,2470.507,2021-8-11T10:15:41Z
2021-08-11T08:17:26Z,42.805,6.029,13.2991,4.60003,2470.507,2021-8-11T10:18:44Z
2021-08-11T08:20:29Z,42.805,6.029,13.2990,4.60001,2470.483,2021-8-11T10:21:47Z
2021-08-11T08:23:32Z,42.805,6.029,13.2993,4.59999,2470.52,2021-8-11T10:24:50Z
2021-08-11T08:26:35Z,42.805,6.029,13.2990,4.60006,2470.483,2021-8-11T10:27:53Z
2021-08-11T08:29:38Z,42.805,6.029,13.2990,4.60001,2470.507,2021-8-11T10:30:56Z
2021-08-11T08:32:41Z,42.805,6.029,13.2986,4.60005,2470.53,2021-8-11T10:33:59Z
2021-08-11T08:35:44Z,42.805,6.029,13.2991,4.60005,2470.544,2021-8-11T10:37:03Z
2021-08-11T08:38:48Z,42.805,6.029,13.2984,4.60002,2470.483,2021-8-11T10:40:06Z
2021-08-11T08:41:51Z,42.805,6.029,13.2986,4.60001,2470.483,2021-8-11T10:43:09Z
2021-08-11T08:44:54Z,42.805,6.029,13.2990,4.59999,2470.52,2021-8-11T10:46:12Z
2021-08-11T08:47:57Z,42.805,6.029,13.2986,4.59999,2470.52,2021-8-11T10:49:15Z
2021-08-11T08:51:00Z,42.805,6.029,13.2983,4.60003,2470.53,2021-8-11T10:52:18Z
2021-08-11T08:54:03Z,42.805,6.029,13.2991,4.60000,2470.52,2021-8-11T10:55:21Z
2021-08-11T08:57:06Z,42.805,6.029,13.2990,4.59999,2470.507,2021-8-11T10:58:24Z
2021-08-11T09:00:09Z,42.805,6.029,13.2990,4.60013,2470.497,2021-8-11T11:01:28Z
2021-08-11T09:03:13Z,42.805,6.029,13.2986,4.60003,2470.53,2021-8-11T11:04:31Z
2021-08-11T09:06:16Z,42.805,6.029,13.2990,4.60000,2470.53,2021-8-11T11:07:34Z
2021-08-11T09:09:19Z,42.805,6.029,13.2987,4.60000,2470.507,2021-8-11T11:10:37Z
2021-08-11T09:12:22Z,42.805,6.029,13.2987,4.59998,2470.507,2021-8-11T11:13:40Z
2021-08-11T09:15:25Z,42.805,6.029,13.2987,4.59999,2470.507,2021-8-11T11:16:43Z
2021-08-11T09:18:28Z,42.805,6.029,13.2987,4.60001,2470.52,2021-8-11T11:19:46Z
2021-08-11T09:21:31Z,42.805,6.029,13.2989,4.59999,2470.52,2021-8-11T11:22:49Z
2021-08-11T09:24:34Z,42.805,6.029,13.2990,4.60001,2470.497,2021-8-11T11:25:53Z
2021-08-11T09:27:38Z,42.805,6.029,13.2990,4.60000,2470.497,2021-8-11T11:28:56Z
2021-08-11T09:30:41Z,42.805,6.029,13.2988,4.60003,2470.483,2021-8-11T11:31:59Z
2021-08-11T09:33:44Z,42.805,6.029,13.2992,4.60013,2470.46,2021-8-11T11:35:02Z
2021-08-11T09:36:47Z,42.805,6.029,13.2986,4.60004,2470.483,2021-8-11T11:38:05Z
2021-08-11T09:39:50Z,42.805,6.029,13.2991,4.60000,2470.507,2021-8-11T11:41:08Z
2021-08-11T09:42:53Z,42.805,6.029,13.2989,4.60006,2470.497,2021-8-11T11:44:11Z
2021-08-11T09:45:56Z,42.805,6.029,13.2990,4.59999,2470.483,2021-8-11T11:47:15Z
2021-08-11T09:48:59Z,42.805,6.029,13.2990,4.60000,2470.483,2021-8-11T11:50:18Z
2021-08-11T09:52:03Z,42.805,6.029,13.2990,4.59999,2470.483,2021-8-11T11:53:21Z
2021-08-11T09:55:06Z,42.805,6.029,13.2994,4.60002,2470.437,2021-8-11T11:56:24Z
2021-08-11T09:58:09Z,42.805,6.029,13.2991,4.60001,2470.46,2021-8-11T11:59:27Z
2021-08-11T10:01:12Z,42.805,6.029,13.2990,4.60002,2470.483,2021-8-11T12:02:30Z
2021-08-11T10:04:15Z,42.805,6.029,13.2986,4.60000,2470.46,2021-8-11T12:05:33Z
2021-08-11T10:07:18Z,42.805,6.029,13.2989,4.60006,2470.46,2021-8-11T12:08:36Z
2021-08-11T10:10:21Z,42.805,6.029,13.2991,4.60001,2470.497,2021-8-11T12:11:40Z
2021-08-11T10:13:24Z,42.805,6.029,13.2990,4.60002,2470.437,2021-8-11T12:14:43Z
2021-08-11T10:16:28Z,42.805,6.029,13.2990,4.60004,2470.474,2021-8-11T12:17:46Z
2021-08-11T10:19:31Z,42.805,6.029,13.2989,4.60001,2470.46,2021-8-11T12:20:49Z
2021-08-11T10:22:34Z,42.805,6.029,13.2987,4.60003,2470.46,2021-8-11T12:23:52Z
2021-08-11T10:25:37Z,42.805,6.029,13.2988,4.60002,2470.46,2021-8-11T12:26:55Z
2021-08-11T10:28:40Z,42.805,6.029,13.2990,4.60002,2470.483,2021-8-11T12:29:58Z
2021-08-11T10:31:43Z,42.805,6.029,13.2991,4.60002,2470.474,2021-8-11T12:33:01Z
2021-08-11T10:34:46Z,42.805,6.029,13.2991,4.59999,2470.46,2021-8-11T12:36:05Z
2021-08-11T10:37:50Z,42.805,6.029,13.2990,4.60000,2470.437,2021-8-11T12:39:08Z
2021-08-11T10:40:53Z,42.805,6.029,13.2993,4.60009,2470.45,2021-8-11T12:42:11Z
2021-08-11T10:43:56Z,42.805,6.029,13.2991,4.60001,2470.437,2021-8-11T12:45:14Z
2021-08-11T10:46:59Z,42.805,6.029,13.2989,4.60003,2470.39,2021-8-11T12:48:17Z
2021-08-11T10:50:02Z,42.805,6.029,13.2993,4.60002,2470.46,2021-8-11T12:51:20Z
2021-08-11T10:53:05Z,42.805,6.029,13.2991,4.60001,2470.45,2021-8-11T12:54:23Z
2021-08-11T10:56:08Z,42.805,6.029,13.2986,4.60009,2470.437,2021-8-11T12:57:26Z
2021-08-11T10:59:11Z,42.805,6.029,13.2989,4.60001,2470.404,2021-8-11T13:00:30Z
2021-08-11T11:02:15Z,42.805,6.029,13.2990,4.60006,2470.413,2021-8-11T13:03:33Z
2021-08-11T11:05:18Z,42.805,6.029,13.2993,4.60002,2470.437,2021-8-11T13:06:36Z
2021-08-11T11:08:21Z,42.805,6.029,13.2989,4.60001,2470.427,2021-8-11T13:09:39Z
2021-08-11T11:11:24Z,42.805,6.029,13.2988,4.60001,2470.404,2021-8-11T13:12:42Z
2021-08-11T11:14:27Z,42.805,6.029,13.2989,4.60007,2470.427,2021-8-11T13:15:45Z
2021-08-11T11:17:30Z,42.805,6.029,13.2989,4.60001,2470.376,2021-8-11T13:18:48Z
2021-08-11T11:20:33Z,42.805,6.029,13.2993,4.60002,2470.427,2021-8-11T13:21:51Z
2021-08-11T11:23:36Z,42.805,6.029,13.2993,4.60001,2470.437,2021-8-11T13:24:55Z
2021-08-11T11:26:40Z,42.805,6.029,13.2986,4.60001,2470.39,2021-8-11T13:27:58Z
2021-08-11T11:29:43Z,42.805,6.029,13.2989,4.60002,2470.39,2021-8-11T13:31:01Z
2021-08-11T11:32:46Z,42.805,6.029,13.2991,4.60002,2470.39,2021-8-11T13:34:04Z
2021-08-11T11:35:49Z,42.805,6.029,13.2991,4.60014,2470.404,2021-8-11T13:37:07Z
2021-08-11T11:38:52Z,42.805,6.029,13.2992,4.60002,2470.404,2021-8-11T13:40:10Z
2021-08-11T11:41:55Z,42.805,6.029,13.2990,4.60002,2470.413,2021-8-11T13:43:13Z
2021-08-11T11:44:58Z,42.805,6.029,13.2990,4.60003,2470.413,2021-8-11T13:46:17Z
2021-08-11T11:48:02Z,42.805,6.029,13.2991,4.59999,2470.39,2021-8-11T13:49:20Z
2021-08-11T11:51:05Z,42.805,6.029,13.2993,4.59999,2470.404,2021-8-11T13:52:23Z
2021-08-11T11:54:08Z,42.805,6.029,13.2991,4.60003,2470.39,2021-8-11T13:55:26Z
2021-08-11T11:57:11Z,42.805,6.029,13.2992,4.60007,2470.39,2021-8-11T13:58:29Z
2021-08-11T12:00:14Z,42.805,6.029,13.2991,4.60000,2470.39,2021-8-11T14:01:32Z
2021-08-11T12:03:17Z,42.805,6.029,13.2990,4.60013,2470.366,2021-8-11T14:04:35Z
2021-08-11T12:06:20Z,42.805,6.029,13.2990,4.60001,2470.404,2021-8-11T14:07:38Z
2021-08-11T12:09:23Z,42.805,6.029,13.2990,4.60015,2470.413,2021-8-11T14:10:42Z
2021-08-11T12:12:27Z,42.805,6.029,13.2987,4.60001,2470.38,2021-8-11T14:13:45Z
2021-08-11T12:15:30Z,42.805,6.029,13.2993,4.60002,2470.366,2021-8-11T14:16:48Z
2021-08-11T12:18:33Z,42.805,6.029,13.2990,4.60006,2470.404,2021-8-11T14:19:51Z
2021-08-11T12:21:36Z,42.805,6.029,13.2990,4.60003,2470.404,2021-8-11T14:22:54Z
2021-08-11T12:24:39Z,42.805,6.029,13.2988,4.60003,2470.366,2021-8-11T14:25:57Z
2021-08-11T12:27:42Z,42.805,6.029,13.2986,4.60000,2470.39,2021-8-11T14:29:00Z
2021-08-11T12:30:45Z,42.805,6.029,13.2989,4.59999,2470.366,2021-8-11T14:32:03Z
2021-08-11T12:33:48Z,42.805,6.029,13.2984,4.59999,2470.39,2021-8-11T14:35:07Z
2021-08-11T12:36:52Z,42.805,6.029,13.2990,4.60002,2470.366,2021-8-11T14:38:10Z
2021-08-11T12:39:55Z,42.805,6.029,13.2993,4.60001,2470.38,2021-8-11T14:41:13Z
2021-08-11T12:42:58Z,42.805,6.029,13.2986,4.60001,2470.366,2021-8-11T14:44:16Z
2021-08-11T12:46:01Z,42.805,6.029,13.2991,4.60000,2470.366,2021-8-11T14:47:19Z
2021-08-11T12:49:04Z,42.805,6.029,13.2989,4.60001,2470.32,2021-8-11T14:50:22Z
2021-08-11T12:52:07Z,42.805,6.029,13.2996,4.60004,2470.343,2021-8-11T14:53:25Z
2021-08-11T12:55:10Z,42.805,6.029,13.2993,4.60003,2470.343,2021-8-11T14:56:28Z
2021-08-11T12:58:13Z,42.805,6.029,13.2994,4.60003,2470.366,2021-8-11T14:59:32Z
2021-08-11T13:01:17Z,42.805,6.029,13.2990,4.60007,2470.343,2021-8-11T15:02:35Z
2021-08-11T13:04:20Z,42.805,6.029,13.2989,4.60002,2470.366,2021-8-11T15:05:38Z
2021-08-11T13:07:23Z,42.805,6.029,13.2992,4.60000,2470.343,2021-8-11T15:08:41Z
2021-08-11T13:10:26Z,42.805,6.029,13.2989,4.60016,2470.334,2021-8-11T15:11:44Z
2021-08-11T13:13:29Z,42.805,6.029,13.2991,4.60001,2470.343,2021-8-11T15:14:47Z
2021-08-11T13:16:32Z,42.805,6.029,13.2989,4.60010,2470.343,2021-8-11T15:17:50Z
2021-08-11T13:19:35Z,42.805,6.029,13.2988,4.60006,2470.343,2021-8-11T15:20:54Z
2021-08-11T13:22:38Z,42.805,6.029,13.2992,4.60003,2470.343,2021-8-11T15:23:57Z
2021-08-11T13:25:42Z,42.805,6.029,13.2986,4.59999,2470.343,2021-8-11T15:27:00Z
2021-08-11T13:28:45Z,42.805,6.029,13.2989,4.60001,2470.334,2021-8-11T15:30:03Z
2021-08-11T13:31:48Z,42.805,6.029,13.2991,4.59999,2470.334,2021-8-11T15:33:06Z
2021-08-11T13:34:51Z,42.805,6.029,13.2991,4.59999,2470.31,2021-8-11T15:36:09Z
2021-08-11T13:37:54Z,42.805,6.029,13.2990,4.60000,2470.32,2021-8-11T15:39:12Z
2021-08-11T13:40:57Z,42.805,6.029,13.2997,4.60003,2470.357,2021-8-11T15:42:15Z
2021-08-11T13:44:00Z,42.805,6.029,13.2993,4.60009,2470.334,2021-8-11T15:45:19Z
2021-08-11T13:47:04Z,42.805,6.029,13.2991,4.60022,2470.32,2021-8-11T15:48:22Z
2021-08-11T13:50:07Z,42.805,6.029,13.2992,4.60005,2470.32,2021-8-11T15:51:25Z
2021-08-11T13:53:10Z,42.805,6.029,13.2998,4.60003,2470.32,2021-8-11T15:54:28Z
2021-08-11T13:56:13Z,42.805,6.029,13.2991,4.60010,2470.343,2021-8-11T15:57:31Z
2021-08-11T13:59:16Z,42.805,6.029,13.2991,4.60011,2470.334,2021-8-11T16:00:34Z
2021-08-11T14:02:19Z,42.805,6.029,13.2991,4.60004,2470.32,2021-8-11T16:03:37Z
2021-08-11T14:05:22Z,42.805,6.029,13.2990,4.60013,2470.334,2021-8-11T16:06:40Z
2021-08-11T14:08:25Z,42.805,6.029,13.2989,4.60003,2470.343,2021-8-11T16:09:44Z
2021-08-11T14:11:29Z,42.805,6.029,13.2988,4.60022,2470.334,2021-8-11T16:12:47Z
2021-08-11T14:14:32Z,42.805,6.029,13.2992,4.60007,2470.32,2021-8-11T16:15:50Z
2021-08-11T14:17:35Z,42.805,6.029,13.2987,4.60006,2470.32,2021-8-11T16:18:53Z
2021-08-11T14:20:38Z,42.805,6.029,13.2983,4.60003,2470.31,2021-8-11T16:21:56Z
2021-08-11T14:23:41Z,42.805,6.029,13.2987,4.60003,2470.32,2021-8-11T16:24:59Z
2021-08-11T14:26:44Z,42.805,6.029,13.2986,4.60001,2470.31,2021-8-11T16:28:02Z
2021-08-11T14:29:47Z,42.805,6.029,13.2990,4.60002,2470.273,2021-8-11T16:31:05Z
2021-08-11T14:32:50Z,42.805,6.029,13.2985,4.60011,2470.297,2021-8-11T16:34:09Z
2021-08-11T14:35:54Z,42.805,6.029,13.2988,4.60004,2470.31,2021-8-11T16:37:12Z
2021-08-11T14:38:57Z,42.805,6.029,13.2988,4.60011,2470.334,2021-8-11T16:40:15Z
2021-08-11T14:42:00Z,42.805,6.029,13.2991,4.60004,2470.297,2021-8-11T16:43:18Z
2021-08-11T14:45:03Z,42.805,6.029,13.2987,4.60009,2470.31,2021-8-11T16:46:21Z
2021-08-11T14:48:06Z,42.805,6.029,13.2991,4.60026,2470.31,2021-8-11T16:49:24Z
2021-08-11T14:51:09Z,42.805,6.029,13.2984,4.60031,2470.31,2021-8-11T16:52:27Z
2021-08-11T14:54:12Z,42.805,6.029,13.2985,4.60005,2470.32,2021-8-11T16:55:30Z
2021-08-11T14:57:15Z,42.805,6.029,13.2992,4.60021,2470.31,2021-8-11T16:58:34Z
2021-08-11T15:00:19Z,42.805,6.029,13.2988,4.60018,2470.297,2021-8-11T17:01:37Z
2021-08-11T15:03:22Z,42.805,6.029,13.2986,4.60021,2470.334,2021-8-11T17:04:40Z
2021-08-11T15:06:25Z,42.805,6.029,13.2990,4.60013,2470.31,2021-8-11T17:07:43Z
2021-08-11T15:09:28Z,42.805,6.029,13.2988,4.60021,2470.297,2021-8-11T17:10:46Z
2021-08-11T15:12:31Z,42.805,6.029,13.2987,4.60027,2470.31,2021-8-11T17:13:49Z
2021-08-11T15:15:34Z,42.805,6.029,13.2988,4.60005,2470.297,2021-8-11T17:16:52Z